Weather History for Chillicothe, MO

Change the Weather History Date:

Thursday, March 6, 2014

  Actual Average (KIRK) Record (KIRK)
Temperature  
Mean Temperature 34 °F 36 °F  
Max Temperature 44 °F 46 °F 74 °F (2012)
Min Temperature 24 °F 27 °F -9 °F (1960)
Degree Days  
Heating Degree Days 31 28  
Month to date heating degree days 177  
Since 1 July heating degree days 4710  
Cooling Degree Days 0 0  
Month to date cooling degree days 0  
Year to date cooling degree days 0  
Moisture  
Dew Point 24 °F    
Average Humidity 72    
Maximum Humidity 85    
Minimum Humidity 53    
Precipitation  
Precipitation 0.00 in 0.08 in 1.34 in (1961)
Month to date precipitation 0.48  
Year to date precipitation 3.28  
Sea Level Pressure  
Sea Level Pressure 30.21 in    
Wind  
Wind Speed 5 mph (ESE)    
Max Wind Speed 9 mph    
Max Gust Speed -    
T = Trace of Precipitation, MM = Missing Value Source: NWS Daily Summary

Daily Weather History Graph

Daily Weather History Graph

Search for Another Location

Airport:

Trip Planner

Search our weather history database for the weather conditions in past years. The results will help you decide how hot, cold, wet, or windy it might be!

Date:

Astronomy

Mar. 06, 2014 Rise Set
Actual Time 6:39 AM CST 6:11 PM CST
Civil Twilight 6:12 AM CST 6:38 PM CST
Nautical Twilight 5:41 AM CST 7:10 PM CST
Astronomical Twilight 5:10 AM CST 7:41 PM CST
Moon 9:48 AM CST (3/6) No Moon Set
Length of Visible Light 12h 25m
Length of Day
11h 31m
Waxing Crescent, 32% of the Moon is Illuminated
Mar 6
Waxing Crescent
Mar 8
First Quarter
Mar 16
Full
Mar 23
Last Quarter
Mar 30
New

Hourly Weather History & Observations

Time (CST) Temp. Windchill Dew Point Humidity Pressure Visibility Wind Dir Wind Speed Gust Speed Precip Events Conditions
12:52 AM 26.1 °F 20.5 °F 19.9 °F 78% 30.35 in - NE 4.6 mph - N/A   Unknown
1:52 AM 25.0 °F 19.3 °F 19.9 °F 81% 30.35 in - ENE 4.6 mph - N/A   Unknown
2:52 AM 24.1 °F 18.2 °F 19.0 °F 81% 30.33 in - NNE 4.6 mph - N/A   Unknown
3:52 AM 24.1 °F 17.0 °F 19.9 °F 84% 30.33 in - NE 5.8 mph - N/A   Unknown
4:52 AM 25.0 °F 18.1 °F 19.9 °F 81% 30.32 in - ENE 5.8 mph - N/A   Unknown
5:52 AM 25.0 °F 17.1 °F 19.9 °F 81% 30.34 in - East 6.9 mph - N/A   Unknown
6:52 AM 25.0 °F 20.7 °F 19.9 °F 81% 30.33 in - ENE 3.5 mph - N/A   Unknown
7:52 AM 24.1 °F 16.0 °F 19.9 °F 84% 30.32 in - ESE 6.9 mph - N/A   Unknown
8:52 AM 25.0 °F 17.1 °F 21.0 °F 85% 30.31 in - ESE 6.9 mph - N/A   Unknown
9:52 AM 26.1 °F 16.8 °F 21.9 °F 84% 30.31 in - ESE 9.2 mph - N/A   Unknown
10:52 AM 28.0 °F 24.2 °F 23.0 °F 81% 30.31 in - ESE 3.5 mph - N/A   Unknown
11:52 AM 32.0 °F - 24.1 °F 73% 30.30 in - Calm Calm - N/A   Unknown
12:52 PM 35.1 °F 30.1 °F 26.1 °F 70% 30.24 in - South 5.8 mph - N/A   Unknown
1:52 PM 39.0 °F 35.7 °F 28.0 °F 65% 30.19 in - Variable 4.6 mph - N/A   Unknown
2:52 PM 43.0 °F 38.8 °F 27.0 °F 53% 30.15 in - SE 6.9 mph - N/A   Unknown
3:52 PM 44.1 °F 39.5 °F 28.0 °F 53% 30.14 in - SSW 8.1 mph - N/A   Unknown
4:52 PM 43.0 °F 38.8 °F 30.0 °F 60% 30.11 in - South 6.9 mph - N/A   Unknown
5:52 PM 39.9 °F - 28.9 °F 65% 30.09 in - Calm Calm - N/A   Unknown
6:52 PM 36.0 °F - 28.0 °F 73% 30.07 in - Calm Calm - N/A   Unknown
7:52 PM 35.1 °F 31.0 °F 27.0 °F 72% 30.06 in - ESE 4.6 mph - N/A   Unknown
8:52 PM 37.0 °F 32.4 °F 27.0 °F 67% 30.05 in - SE 5.8 mph - N/A   Unknown
9:52 PM 37.9 °F 32.7 °F 26.1 °F 62% 30.05 in - SSE 6.9 mph - N/A   Unknown
10:52 PM 37.0 °F 32.4 °F 25.0 °F 62% 30.04 in - SSE 5.8 mph - N/A   Unknown
11:52 PM 37.0 °F 33.3 °F 25.0 °F 62% 30.03 in - South 4.6 mph - N/A   Unknown